Date,TemperatureHighF,TemperatureAvgF,TemperatureLowF,DewpointHighF,DewpointAvgF,DewpointLowF,HumidityHigh,HumidityAvg,HumidityLow,PressureMaxIn,PressureMinIn,WindSpeedMaxMPH,WindSpeedAvgMPH,GustSpeedMaxMPH,PrecipitationSumIn
2014-2-1,19,12,-1,16,7,-4,93,79,67,30.23,29.80,16,7,0,0.00
2014-2-2,28,11,-6,14,4,-9,91,75,51,30.23,30.10,11,3,0,0.00
2014-2-3,22,13,1,12,8,-1,91,80,61,30.31,30.09,11,3,0,0.00
2014-2-4,12,6,1,8,0,-7,86,76,65,30.53,30.31,12,7,0,0.00
2014-2-5,9,1,-10,-1,-5,-13,88,76,61,30.64,30.53,16,7,0,0.01
2014-2-6,12,-2,-13,-1,-8,-16,86,75,53,30.58,30.29,10,3,0,0.00
2014-2-7,24,4,-13,9,-2,-17,87,75,50,30.30,30.04,9,3,0,0.00
2014-2-8,28,15,5,14,9,2,90,79,51,30.23,29.96,9,4,0,0.00
2014-2-9,14,-1,-10,3,-6,-14,88,78,59,30.46,30.23,9,4,0,0.00
2014-2-10,16,-1,-18,-1,-8,-22,86,71,44,30.49,30.39,5,2,0,0.01
2014-2-11,26,15,2,19,10,-2,84,80,74,30.40,29.91,19,9,0,0.00
2014-2-12,28,19,12,20,13,8,92,78,51,30.15,29.63,17,5,0,0.00
2014-2-13,38,24,13,31,18,8,90,76,62,29.79,29.51,16,7,0,0.13
2014-2-14,18,10,-1,10,4,-4,89,77,59,30.08,29.71,9,4,0,0.00
2014-2-15,50,26,4,35,20,0,87,79,55,30.09,29.66,20,9,0,0.68
2014-2-16,31,20,9,25,15,5,85,81,70,30.16,29.68,19,8,0,0.05
2014-2-17,50,37,26,34,30,24,96,76,53,29.82,29.65,20,5,0,0.62
2014-2-18,51,38,25,38,30,21,93,75,55,29.87,29.53,11,4,0,0.00
2014-2-19,54,38,23,34,28,22,97,71,38,29.87,29.51,17,5,0,0.04
2014-2-20,40,31,18,32,26,12,92,81,69,29.68,29.49,24,10,0,3.21
2014-2-21,38,24,15,22,15,10,84,70,47,29.86,29.66,15,6,0,0.06
2014-2-22,32,22,14,14,10,6,76,61,43,30.21,29.85,11,6,0,0.00
2014-2-23,29,17,6,12,8,3,88,70,47,30.36,30.21,17,5,0,0.00
2014-2-24,20,14,4,16,8,1,88,77,56,30.41,30.22,7,4,0,0.00
2014-2-25,15,0,-12,5,-5,-15,87,78,58,30.48,30.36,14,5,0,0.00
2014-2-26,29,8,-14,16,0,-18,87,71,49,30.44,29.80,14,5,0,0.00
2014-2-27,13,2,-11,0,-8,-16,81,64,38,30.19,29.86,11,5,0,0.00
2014-2-28,27,13,2,16,6,-5,84,73,54,30.23,29.72,13,7,0,0.00